OBJECT_NAME,OBJECT_ID,EPOCH,MEAN_MOTION,ECCENTRICITY,INCLINATION,RA_OF_ASC_NODE,ARG_OF_PERICENTER,MEAN_ANOMALY,EPHEMERIS_TYPE,CLASSIFICATION_TYPE,NORAD_CAT_ID,ELEMENT_SET_NO,REV_AT_EPOCH,BSTAR,MEAN_MOTION_DOT,MEAN_MOTION_DDOT INTELSAT 902 (IS-902),2001-039A,2026-09-12T06:49:29.999136,1.00272456,.00040716,6.3307,70.6791,100.7704,232.1069,0,U,26900,999,9156,0,-.295E-5,0 INTELSAT 904 (IS-904),2002-007A,2026-09-11T20:38:52.910304,1.00270660,.0002984,7.1312,68.1081,103.4307,97.5744,0,U,27380,999,5263,0,-.238E-5,0 DIRECTV 5 (TEMPO 1),2002-023A,2026-09-12T03:06:58.836096,1.00272484,.00032126,5.0943,74.1827,106.5054,107.1066,0,U,27426,999,8899,0,-.7E-6,0 INTELSAT 905 (IS-905),2002-027A,2026-09-12T02:59:14.577792,1.00271565,.00030923,6.9664,68.7152,130.3969,59.6424,0,U,27438,999,5223,0,.82E-6,0 GALAXY 3C (G-3C),2002-030A,2026-09-12T03:11:20.916672,1.00271855,.00014301,3.9595,76.8674,43.8669,183.3973,0,U,27445,999,4736,0,-.166E-5,0 INTELSAT 906 (IS-906),2002-041A,2026-09-12T02:14:03.910848,1.00272748,.00028675,6.0168,71.8117,115.9318,261.0389,0,U,27513,999,8790,0,0,0 GALAXY 13 (HORIZONS-1),2003-044A,2026-09-12T07:44:26.494368,1.00273815,.0001956,1.6376,82.6222,92.8866,141.9437,0,U,27954,999,4744,0,.119E-5,0 INTELSAT 10-02,2004-022A,2026-09-12T07:03:28.659744,1.00271087,.00001198,0.0450,262.7124,54.6562,138.7996,0,U,28358,999,8142,0,-.26E-6,0 DIRECTV 8,2005-019A,2026-09-12T06:29:46.890240,1.00272003,.00029218,0.0051,146.9970,27.3270,155.3449,0,U,28659,999,7794,0,-.13E-6,0 GALAXY 28 (G-28),2005-022A,2026-09-12T06:55:59.377152,1.00272242,.00018624,3.5164,77.7982,100.4848,249.9339,0,U,28702,999,5284,0,-.213E-5,0 GALAXY 16 (G-16),2006-023A,2026-09-12T04:52:48.688320,1.00271848,.00026047,0.0131,161.0306,8.7865,155.5992,0,U,29236,999,7384,0,-.142E-5,0 DIRECTV 9S,2006-043A,2026-09-12T06:27:38.778912,0.99094990,.00060448,2.6411,79.7592,195.7276,35.9132,0,U,29494,999,5225,0,.55E-6,0 GALAXY 17 (G-17),2007-016B,2026-09-12T06:39:30.955968,1.00271794,.00030327,3.1858,78.7382,120.0170,167.4091,0,U,31307,999,7067,0,-.219E-5,0 INTELSAT 11 (IS-11),2007-044B,2026-09-12T00:42:42.670656,0.99047630,.00073169,3.7856,77.5491,127.4501,260.5293,0,U,32253,999,6931,0,-.12E-5,0 HORIZONS-2,2007-063B,2026-09-12T06:42:38.157120,1.00273084,.00013552,2.8207,79.4820,90.8607,207.8152,0,U,32388,999,6868,0,-.267E-5,0 DIRECTV 11,2008-013A,2026-09-12T04:52:48.688320,1.00271786,.00001513,0.0145,335.0698,85.1302,265.0303,0,U,32729,999,4646,0,-.141E-5,0 GALAXY 18 (G-18),2008-024A,2026-09-12T06:28:39.497376,1.00272108,.00029948,0.0024,143.9536,34.4362,147.0512,0,U,32951,999,4672,0,.1E-6,0 GALAXY 19 (G-19),2008-045A,2026-09-12T04:53:26.128032,1.00272225,.00024365,0.0381,247.8273,281.0695,158.6758,0,U,33376,999,6577,0,-.154E-5,0 FM-5,2009-034A,2026-09-12T01:31:15.515328,1.00272692,.00006942,0.0439,269.7388,141.7504,236.2500,0,U,35493,999,4751,0,-.216E-5,0 INTELSAT 14 (IS-14),2009-064A,2026-09-12T06:50:52.367712,1.00272145,.00023689,0.1344,84.7729,84.2729,239.9741,0,U,36097,999,6147,0,-.288E-5,0 INTELSAT 15 (IS-15),2009-067A,2026-09-12T03:22:09.729696,1.00269548,.00022789,0.0190,165.7416,9.7281,311.3660,0,U,36106,999,4210,0,0,0 DIRECTV 12,2009-075A,2026-09-12T04:51:48.783744,1.00271707,.00004102,0.0432,359.9449,110.7635,210.7332,0,U,36131,999,4742,0,-.118E-5,0 INTELSAT 16 (IS-16),2010-006A,2026-09-10T03:10:38.764704,1.00277212,.00024289,0.0475,283.5929,255.8800,141.1811,0,U,36397,999,6050,0,-.266E-5,0 XM-5,2010-053A,2026-09-12T06:30:54.282240,1.00272277,.00003468,0.0700,272.1984,255.1763,166.4471,0,U,37185,999,5835,0,-.38E-6,0 INTELSAT 17 (IS-17),2010-065B,2026-09-12T03:57:09.025920,1.00271757,.00025764,0.0045,163.3202,15.1560,297.9902,0,U,37238,999,5412,0,-.17E-6,0 INTELSAT 28 (IS-28),2011-016A,2026-09-12T06:54:37.008576,1.00273698,.00035353,2.0252,81.4513,93.9006,247.9091,0,U,37392,999,5415,0,-.238E-5,0 INTELSAT 18 (IS-18),2011-056A,2026-09-12T06:02:38.660640,1.00274025,.00019998,0.0447,267.0885,274.3421,80.5009,0,U,37834,999,5468,0,.39E-6,0 INTELSAT 22 (IS-22),2012-011A,2026-09-12T04:55:21.489312,1.00271774,.00017398,0.0233,115.8839,54.9321,326.3353,0,U,38098,999,806,0,-.73E-6,0 INTELSAT 19 (IS-19),2012-030A,2026-09-12T08:08:38.611392,1.00270275,.00030751,0.0188,164.9354,12.5546,102.0177,0,U,38356,999,5132,0,0,0 INTELSAT 20 (IS-20),2012-043A,2026-09-12T04:55:21.489312,1.00271259,.00014801,0.0165,146.4484,19.7882,327.3268,0,U,38740,999,5162,0,-.39E-6,0 INTELSAT 21 (IS-21),2012-045A,2026-09-12T06:47:07.726848,1.00269997,.00023924,0.0222,176.9513,10.3833,207.7416,0,U,38749,999,5139,0,0,0 INTELSAT 23 (IS-23),2012-057A,2026-09-12T05:05:54.930912,1.00268194,.00017864,0.0371,274.6457,332.9122,127.1239,0,U,38867,999,5082,0,-.3E-5,0 FM-6,2013-058A,2026-09-12T03:05:14.004384,1.00273543,.00008675,0.0275,128.9680,132.4911,19.5877,0,U,39360,999,4694,0,0,0 INTELSAT 30 (IS-30),2014-062A,2026-09-12T04:53:56.080320,1.00272978,.00015455,0.0158,92.0614,311.8865,285.7043,0,U,40271,999,766,0,-.166E-5,0 DIRECTV 14,2014-078B,2026-09-12T04:52:48.688320,1.00268393,.00006353,0.0171,135.2520,303.3090,246.6166,0,U,40333,999,4291,0,0,0 DIRECTV 15,2015-026A,2026-09-12T01:26:30.969888,1.00273413,.00003566,0.0155,111.1051,23.8027,134.9299,0,U,40663,999,4133,0,-.118E-5,0 SKY MEXICO-1,2015-026B,2026-09-12T06:41:15.789408,1.00272633,.00019417,0.0211,125.1452,45.2647,202.4045,0,U,40664,999,4132,0,-.249E-5,0 INTELSAT 34 (IS-34),2015-039A,2026-09-11T23:57:17.027136,1.00270229,.00003332,0.0122,154.6115,237.7415,262.4680,0,U,40874,999,4050,0,0,0 INTELSAT 31 (IS-31),2016-035A,2026-09-12T04:53:56.080320,1.00273031,.00016357,0.0266,239.6497,68.2702,21.7385,0,U,41581,999,3755,0,-.166E-5,0 INTELSAT 36 (IS-36),2016-053A,2026-09-12T02:15:18.791136,1.00270490,.00018489,0.0165,137.0890,215.4906,100.8566,0,U,41747,999,3682,0,0,0 INTELSAT 32E (IS-32E),2017-007B,2026-09-12T06:51:22.320000,1.00273651,.00004396,0.0230,241.2185,215.8694,313.8773,0,U,41945,999,3509,0,-.283E-5,0 INTELSAT 35E (IS-35E),2017-041A,2026-09-12T06:53:52.080576,1.00271117,.00020617,0.0214,132.4279,43.7147,244.1293,0,U,42818,999,3368,0,-.253E-5,0 INTELSAT 37E (IS-37E),2017-059A,2026-09-12T06:58:36.626016,1.00270460,.00026569,0.0250,152.7439,16.4073,268.8030,0,U,42950,999,3293,0,0,0 AZERSPACE 2 (IS-38),2018-074A,2026-09-12T03:51:17.089344,1.00270318,.00018711,0.0225,162.5541,1.0992,290.4586,0,U,43632,999,2931,0,0,0 HORIZONS-3E,2018-074B,2026-09-12T02:44:01.038624,1.00269242,.0000476,0.0135,171.3269,27.6804,2.1227,0,U,43633,999,2921,0,-.46E-6,0 AT&T T-16,2019-034A,2026-09-12T03:09:43.573248,1.00272416,.00005414,0.0136,112.7011,300.8744,244.1466,0,U,44333,999,2650,0,-.13E-5,0 INTELSAT 39 (IS-39),2019-049B,2026-09-12T03:56:09.122208,1.00269817,.0000632,0.0227,173.0384,276.0626,23.0513,0,U,44476,999,2600,0,0,0 GALAXY 30 (G-30),2020-056C,2026-09-12T06:28:02.056800,1.00271549,.00022071,0.0228,160.5572,10.2914,152.4352,0,U,46114,999,2216,0,0,0 GALAXY 33 (G-33),2022-128A,2026-09-12T06:25:47.272800,1.00272064,.00018063,0.0151,101.3878,71.5833,141.7545,0,U,54026,999,1461,0,.64E-6,0 GALAXY 34 (G-34),2022-128B,2026-09-12T01:19:01.688160,1.00270786,.00015851,0.0269,149.4956,40.1584,52.1744,0,U,54027,999,1478,0,0,0 GALAXY 31 (G-31),2022-153A,2026-09-12T06:29:16.937088,1.00272242,.00012389,0.0137,127.8418,42.6793,157.0806,0,U,54243,999,800,0,-.2E-7,0 GALAXY 32 (G-32),2022-153B,2026-09-12T04:55:10.959744,1.00272798,.00003105,0.0207,110.9856,308.7359,274.2947,0,U,54244,999,1401,0,-.189E-5,0 GALAXY 35 (G-35),2022-170A,2026-09-12T06:37:08.683680,1.00272810,.00019217,0.0079,142.2261,25.9867,189.2520,0,U,54741,999,1376,0,-.177E-5,0 GALAXY 36 (G-36),2022-170B,2026-09-12T06:38:23.563968,1.00272091,.00020292,0.0162,183.7043,301.2269,236.9591,0,U,54742,999,1365,0,-.2E-5,0 GALAXY 37 (G-37),2023-112A,2026-09-12T06:27:32.105376,1.00270530,.00020025,0.0230,172.1588,6.1002,142.8963,0,U,57493,999,1141,0,0,0